• In Uzbekistan
  • List of Countries
  • For 7 days
  • Water Temperature
  • Satellite Maps
  • Weather Map
  • Weather Widgets
  • user-avatar
    Login

    Hourly Weather Hillerod

    Today, 20 September, Wednesday

    Time Temperature Precipitation Wind Pressure Humidity
    00:00 +12°C° 0.4 mm 5 mps 755 mmHg 90%
    01:00 +12°C° 0 mm 4 mps 754 mmHg 91%
    02:00 +12°C° 0.2 mm 4 mps 754 mmHg 91%
    03:00 +12°C° 0.2 mm 4 mps 754 mmHg 91%
    04:00 +12°C° 0.2 mm 4 mps 754 mmHg 92%
    05:00 +12°C° 0 mm 4 mps 754 mmHg 91%
    06:00 +12°C° 0 mm 3 mps 754 mmHg 91%
    07:00 +12°C° 0 mm 3 mps 754 mmHg 91%
    08:00 +12°C° 0 mm 3 mps 755 mmHg 87%
    09:00 +13°C° 0 mm 3 mps 755 mmHg 82%
    10:00 +14°C° 0 mm 3 mps 755 mmHg 78%
    11:00 +14°C° 0 mm 3 mps 755 mmHg 76%
    12:00 +14°C° 0 mm 3 mps 756 mmHg 75%
    13:00 +15°C° 0 mm 2 mps 756 mmHg 73%
    14:00 +15°C° 0 mm 2 mps 756 mmHg 72%
    15:00 +15°C° 0 mm 2 mps 756 mmHg 72%
    16:00 +15°C° 0 mm 2 mps 756 mmHg 71%
    17:00 +14°C° 0 mm 2 mps 757 mmHg 76%
    18:00 +13°C° 0 mm 2 mps 757 mmHg 80%
    19:00 +12°C° 0 mm 2 mps 757 mmHg 85%
    20:00 +12°C° 0 mm 1 mps 757 mmHg 85%
    21:00 +12°C° 0 mm 1 mps 758 mmHg 86%
    22:00 +12°C° 0 mm 1 mps 758 mmHg 86%
    23:00 +12°C° 0 mm 1 mps 758 mmHg 87%

    Tomorrow, 21 September, Thursday

    Time Temperature Precipitation Wind Pressure Humidity
    00:00 +12°C° 0 mm 1 mps 758 mmHg 87%
    01:00 +12°C° 0 mm 1 mps 759 mmHg 87%
    02:00 +12°C° 0.1 mm 1 mps 759 mmHg 87%
    03:00 +12°C° 0.1 mm 1 mps 759 mmHg 88%
    04:00 +12°C° 0.1 mm 1 mps 759 mmHg 88%
    05:00 +12°C° 0 mm 1 mps 759 mmHg 88%
    06:00 +12°C° 0 mm 1 mps 759 mmHg 89%
    07:00 +12°C° 0 mm 2 mps 760 mmHg 89%
    08:00 +13°C° 0 mm 2 mps 760 mmHg 83%
    09:00 +14°C° 0 mm 2 mps 760 mmHg 77%
    10:00 +15°C° 0 mm 2 mps 760 mmHg 71%
    11:00 +16°C° 0 mm 2 mps 760 mmHg 68%
    12:00 +16°C° 0 mm 2 mps 760 mmHg 64%
    13:00 +17°C° 0 mm 2 mps 760 mmHg 61%
    14:00 +17°C° 0 mm 2 mps 760 mmHg 62%
    15:00 +17°C° 0 mm 2 mps 760 mmHg 63%
    16:00 +16°C° 0 mm 3 mps 760 mmHg 65%
    17:00 +14°C° 0 mm 3 mps 761 mmHg 70%
    18:00 +13°C° 0 mm 3 mps 761 mmHg 76%
    19:00 +12°C° 0 mm 3 mps 761 mmHg 81%
    20:00 +11°C° 0 mm 3 mps 761 mmHg 83%
    21:00 +10°C° 0 mm 3 mps 761 mmHg 85%
    22:00 +10°C° 0 mm 3 mps 761 mmHg 87%
    23:00 +9°C° 0 mm 3 mps 761 mmHg 88%

    Day after tomorrow, 22 September, Friday

    Time Temperature Precipitation Wind Pressure Humidity
    00:00 +9°C° 0 mm 3 mps 761 mmHg 88%
    01:00 +9°C° 0 mm 3 mps 761 mmHg 89%
    02:00 +9°C° 0 mm 3 mps 761 mmHg 90%
    03:00 +9°C° 0 mm 3 mps 761 mmHg 91%
    04:00 +8°C° 0 mm 3 mps 760 mmHg 92%
    05:00 +9°C° 0 mm 3 mps 761 mmHg 92%
    06:00 +9°C° 0 mm 2 mps 761 mmHg 92%
    07:00 +9°C° 0 mm 2 mps 761 mmHg 92%
    08:00 +10°C° 0 mm 2 mps 761 mmHg 88%
    09:00 +13°C° 0 mm 2 mps 761 mmHg 83%
    10:00 +14°C° 0 mm 2 mps 761 mmHg 78%
    11:00 +15°C° 0 mm 2 mps 761 mmHg 75%
    12:00 +16°C° 0 mm 1 mps 761 mmHg 72%
    13:00 +18°C° 0 mm 1 mps 761 mmHg 69%
    14:00 +16°C° 0 mm 1 mps 761 mmHg 70%
    15:00 +16°C° 0 mm 1 mps 761 mmHg 72%
    16:00 +16°C° 0 mm 1 mps 761 mmHg 73%
    17:00 +15°C° 0 mm 1 mps 761 mmHg 77%
    18:00 +15°C° 0 mm 1 mps 761 mmHg 80%
    19:00 +14°C° 0 mm 1 mps 761 mmHg 83%
    20:00 +14°C° 0 mm 1 mps 761 mmHg 84%
    21:00 +13°C° 0 mm 1 mps 761 mmHg 86%
    22:00 +13°C° 0 mm 1 mps 762 mmHg 87%
    23:00 +12°C° 0 mm 1 mps 762 mmHg 88%

    23 September, Saturday

    Time Temperature Precipitation Wind Pressure Humidity
    00:00 +12°C° 0 mm 1 mps 762 mmHg 89%
    01:00 +12°C° 0 mm 1 mps 762 mmHg 90%
    02:00 +12°C° 0 mm 1 mps 762 mmHg 90%
    03:00 +12°C° 0 mm 1 mps 762 mmHg 90%
    04:00 +12°C° 0 mm 2 mps 762 mmHg 91%
    05:00 +12°C° 0 mm 2 mps 762 mmHg 91%
    06:00 +12°C° 0 mm 2 mps 763 mmHg 91%
    07:00 +12°C° 0 mm 1 mps 763 mmHg 91%
    08:00 +13°C° 0 mm 2 mps 763 mmHg 85%
    09:00 +14°C° 0 mm 2 mps 763 mmHg 79%
    10:00 +16°C° 0 mm 2 mps 763 mmHg 73%
    11:00 +16°C° 0 mm 2 mps 763 mmHg 70%
    12:00 +17°C° 0 mm 3 mps 763 mmHg 67%
    13:00 +17°C° 0 mm 3 mps 763 mmHg 64%
    14:00 +17°C° 0 mm 4 mps 763 mmHg 66%
    15:00 +17°C° 0 mm 4 mps 763 mmHg 68%
    16:00 +15°C° 0 mm 4 mps 763 mmHg 70%
    17:00 +14°C° 0 mm 4 mps 763 mmHg 74%
    18:00 +13°C° 0 mm 4 mps 763 mmHg 79%
    19:00 +13°C° 0 mm 4 mps 763 mmHg 84%
    20:00 +12°C° 0.1 mm 3 mps 763 mmHg 85%
    21:00 +12°C° 0.1 mm 3 mps 763 mmHg 86%
    22:00 +12°C° 0.1 mm 3 mps 763 mmHg 87%
    23:00 +12°C° 0.2 mm 3 mps 763 mmHg 88%

    24 September, Sunday

    Time Temperature Precipitation Wind Pressure Humidity
    00:00 +12°C° 0.2 mm 3 mps 762 mmHg 89%
    01:00 +12°C° 0.2 mm 3 mps 762 mmHg 90%
    02:00 +12°C° 0 mm 3 mps 762 mmHg 91%
    03:00 +12°C° 0 mm 3 mps 762 mmHg 91%
    04:00 +12°C° 0 mm 3 mps 762 mmHg 92%
    05:00 +12°C° 0 mm 3 mps 763 mmHg 92%
    06:00 +12°C° 0 mm 3 mps 763 mmHg 92%
    07:00 +12°C° 0 mm 3 mps 763 mmHg 92%
    08:00 +14°C° 0 mm 2 mps 763 mmHg 86%
    09:00 +15°C° 0 mm 2 mps 764 mmHg 80%
    10:00 +16°C° 0 mm 2 mps 764 mmHg 74%
    11:00 +17°C° 0 mm 2 mps 764 mmHg 71%
    12:00 +18°C° 0 mm 1 mps 765 mmHg 68%
    13:00 +19°C° 0 mm 1 mps 765 mmHg 65%
    14:00 +19°C° 0 mm 1 mps 765 mmHg 65%
    15:00 +19°C° 0 mm 1 mps 765 mmHg 65%
    16:00 +19°C° 0 mm 1 mps 765 mmHg 66%
    17:00 +16°C° 0 mm 1 mps 765 mmHg 71%
    18:00 +15°C° 0 mm 1 mps 766 mmHg 76%
    19:00 +14°C° 0 mm 2 mps 766 mmHg 81%
    20:00 +14°C° 0 mm 2 mps 766 mmHg 83%
    21:00 +13°C° 0 mm 2 mps 766 mmHg 85%
    22:00 +13°C° 0 mm 2 mps 767 mmHg 86%
    23:00 +13°C° 0 mm 2 mps 767 mmHg 87%

    25 September, Monday

    Time Temperature Precipitation Wind Pressure Humidity
    00:00 +12°C° 0 mm 2 mps 767 mmHg 88%
    01:00 +12°C° 0 mm 2 mps 767 mmHg 88%
    02:00 +12°C° 0 mm 2 mps 767 mmHg 89%
    03:00 +11°C° 0 mm 3 mps 767 mmHg 89%
    04:00 +10°C° 0 mm 3 mps 767 mmHg 90%
    05:00 +10°C° 0 mm 3 mps 767 mmHg 90%
    06:00 +10°C° 0 mm 3 mps 767 mmHg 90%
    07:00 +10°C° 0 mm 3 mps 767 mmHg 90%
    08:00 +13°C° 0 mm 2 mps 767 mmHg 85%
    09:00 +14°C° 0 mm 2 mps 767 mmHg 79%
    10:00 +16°C° 0 mm 2 mps 767 mmHg 74%
    11:00 +17°C° 0 mm 2 mps 767 mmHg 71%
    12:00 +18°C° 0 mm 2 mps 767 mmHg 68%
    13:00 +18°C° 0 mm 2 mps 766 mmHg 66%
    14:00 +18°C° 0 mm 2 mps 766 mmHg 69%
    15:00 +18°C° 0 mm 2 mps 766 mmHg 72%
    16:00 +17°C° 0 mm 2 mps 766 mmHg 75%
    17:00 +17°C° 0 mm 2 mps 766 mmHg 79%
    18:00 +16°C° 0 mm 2 mps 766 mmHg 83%
    19:00 +14°C° 0 mm 3 mps 766 mmHg 87%
    20:00 +13°C° 0 mm 3 mps 766 mmHg 89%
    21:00 +13°C° 0 mm 4 mps 766 mmHg 91%
    22:00 +12°C° 0 mm 4 mps 766 mmHg 93%
    23:00 +12°C° 0 mm 4 mps 766 mmHg 94%
    Show more